Tracking 19638 objects as of 20-Apr-2019
HD Live streaming from Space Station
objects crossing your sky now

OV1-5 DEB

Track OV1-5 DEB now!
10-day predictions


NORAD ID: 3611
Int'l Code: 1966-025E
Perigee: 590.3 km
Apogee: 606.0 km
Inclination: 144.6 °
Period: 96.5 minutes
Semi major axis: 6969 km
RCS: 0.0246 m2 (small)
Launch date: March 30, 1966
Source: United States (US)
Launch site: AIR FORCE WESTERN TEST RANGE (AFWTR)

Note: This is SATELLITE DEBRIS
aabbcc
Your satellite tracking list
Your tracking list is empty




NASA's NSSDC Master Catalog

Two Line Element Set (TLE):
1  3611U 66025E   19107.89508172 +.00002479 +00000-0 +19344-3 0  9994
2  3611 144.5587 122.9317 0011282 109.9876 250.2051 14.92221749743770
Source of the keplerian elements: AFSPC